Weather History for Antigo, WI

Change the Weather History Date:

Friday, February 14, 2014

  Actual Average Record
Temperature  
Mean Temperature 8 °F -  
Max Temperature 18 °F 25 °F 44 °F (1954)
Min Temperature -4 °F 3 °F -25 °F (1970)
Degree Days  
Heating Degree Days 57    
Moisture  
Dew Point 3 °F    
Average Humidity 77    
Maximum Humidity 89    
Minimum Humidity 64    
Precipitation  
Precipitation 0.07 in - - ()
Sea Level Pressure  
Sea Level Pressure 29.70 in    
Wind  
Wind Speed 12 mph (NNW)    
Max Wind Speed 17 mph    
Max Gust Speed 23 mph    
Visibility 10 miles    
Events Snow    
Averages and records for this station are not official NWS values.
T = Trace of Precipitation, MM = Missing Value Source: NWS Daily Summary

Daily Weather History Graph

Daily Weather History Graph

Search for Another Location

Airport:

Trip Planner

Search our weather history database for the weather conditions in past years. The results will help you decide how hot, cold, wet, or windy it might be!

Date:

Astronomy

Feb. 14, 2014 Rise Set
Actual Time 6:59 AM CST 5:22 PM CST
Civil Twilight 6:28 AM CST 5:53 PM CST
Nautical Twilight 5:54 AM CST 6:27 PM CST
Astronomical Twilight 5:20 AM CST 7:01 PM CST
Moon 5:29 PM CST (2/14) 6:24 AM CST (2/14)
Length of Visible Light 11h 24m
Length of Day
10h 23m
Full, 100% of the Moon is Illuminated
Feb 14
Full
Feb 14
Full
Feb 22
Last Quarter
Mar 1
New
Mar 8
First Quarter

Hourly Weather History & Observations

Time (CST) Temp. Windchill Dew Point Humidity Pressure Visibility Wind Dir Wind Speed Gust Speed Precip Events Conditions
12:15 AM 12.4 °F -0.8 °F 9.7 °F 89% 29.49 in 7.0 mi WNW 10.4 mph 16.1 mph N/A Snow Light Snow
12:35 AM 12.7 °F -0.4 °F 9.9 °F 88% 29.49 in 7.0 mi NW 10.4 mph - N/A Snow Light Snow
12:55 AM 12.0 °F -2.7 °F 8.1 °F 84% 29.50 in 10.0 mi NW 12.7 mph - N/A   Scattered Clouds
1:15 AM 11.1 °F -4.5 °F 7.5 °F 85% 29.50 in 10.0 mi WNW 13.8 mph - N/A   Clear
1:35 AM 11.3 °F -4.9 °F 6.4 °F 81% 29.51 in 10.0 mi NW 15.0 mph 20.7 mph N/A   Clear
1:55 AM 10.8 °F -2.8 °F 5.5 °F 79% 29.51 in 10.0 mi WNW 10.4 mph 17.3 mph N/A   Clear
2:15 AM 10.2 °F -5.7 °F 5.2 °F 80% 29.52 in 10.0 mi NW 13.8 mph 18.4 mph N/A   Clear
2:35 AM 9.9 °F -6.1 °F 5.5 °F 83% 29.52 in 10.0 mi NW 13.8 mph 20.7 mph N/A Snow Light Snow
2:55 AM 9.7 °F -7.0 °F 5.5 °F 83% 29.52 in 10.0 mi NW 15.0 mph - N/A   Overcast
3:15 AM 9.5 °F -5.9 °F 5.4 °F 83% 29.52 in 10.0 mi NW 12.7 mph 18.4 mph N/A   Overcast
3:35 AM 9.5 °F -7.2 °F 5.0 °F 82% 29.52 in 10.0 mi NW 15.0 mph 18.4 mph N/A   Overcast
3:55 AM 8.6 °F -7.7 °F 4.1 °F 82% 29.52 in 10.0 mi NW 13.8 mph 18.4 mph N/A   Mostly Cloudy
4:15 AM 8.2 °F -5.1 °F 4.1 °F 83% 29.55 in 10.0 mi NW 9.2 mph - N/A Snow Light Snow
4:35 AM 8.6 °F -6.3 °F 4.1 °F 82% 29.56 in 10.0 mi NNW 11.5 mph - N/A   Overcast
4:55 AM 8.4 °F -9.7 °F 4.1 °F 83% 29.56 in 10.0 mi NNW 17.3 mph 21.9 mph N/A Snow Light Snow
5:15 AM 7.9 °F -9.3 °F 3.4 °F 82% 29.57 in 10.0 mi NNW 15.0 mph - N/A   Overcast
5:35 AM 7.2 °F -10.8 °F 2.7 °F 82% 29.58 in 10.0 mi NNW 16.1 mph 23.0 mph N/A   Overcast
5:55 AM 6.4 °F -9.8 °F 1.9 °F 82% 29.59 in 10.0 mi NNW 12.7 mph - N/A   Mostly Cloudy
6:15 AM 5.9 °F -11.2 °F 1.2 °F 81% 29.59 in 10.0 mi NNW 13.8 mph - N/A   Scattered Clouds
6:35 AM 5.0 °F -13.0 °F 0.5 °F 82% 29.59 in 10.0 mi NNW 15.0 mph - N/A   Clear
6:55 AM 4.6 °F -13.4 °F -0.0 °F 81% 29.60 in 10.0 mi NNW 15.0 mph - N/A   Clear
7:15 AM 4.6 °F -12.0 °F 0.1 °F 82% 29.62 in 10.0 mi NNW 12.7 mph 18.4 mph N/A   Clear
7:35 AM 4.8 °F -11.8 °F 0.1 °F 81% 29.62 in 10.0 mi NNW 12.7 mph - N/A   Clear
7:55 AM 5.0 °F -11.6 °F 0.3 °F 81% 29.64 in 10.0 mi NNW 12.7 mph - N/A   Clear
8:15 AM 5.7 °F -9.9 °F 0.3 °F 78% 29.64 in 10.0 mi NNW 11.5 mph - N/A   Clear
8:35 AM 6.4 °F -11.7 °F 0.7 °F 77% 29.65 in 10.0 mi NNW 16.1 mph 21.9 mph N/A   Clear
8:55 AM 7.2 °F -11.4 °F 1.2 °F 77% 29.65 in 10.0 mi NNW 17.3 mph 21.9 mph N/A   Clear
9:15 AM 7.7 °F -8.9 °F 2.1 °F 78% 29.67 in 10.0 mi NNW 13.8 mph - N/A   Clear
9:53 AM 8.6 °F -7.0 °F 3.2 °F 79% 29.68 in 10.0 mi NNW 12.7 mph - N/A   Clear
10:13 AM 8.6 °F -8.3 °F 3.2 °F 79% 29.69 in 10.0 mi NNW 15.0 mph - N/A   Clear
10:33 AM 10.4 °F -7.2 °F 3.2 °F 73% 29.69 in 10.0 mi NNW 17.3 mph - N/A   Clear
10:53 AM 10.4 °F -5.4 °F 3.2 °F 73% 29.70 in 10.0 mi North 13.8 mph - N/A   Clear
11:13 AM 12.2 °F -1.8 °F 5.0 °F 73% 29.70 in 10.0 mi NNW 11.5 mph - N/A   Clear
11:15 AM 11.8 °F -1.5 °F 5.4 °F 75% 29.70 in 10.0 mi North 10.4 mph - N/A   Clear
11:35 AM 12.9 °F -1.6 °F 6.3 °F 75% 29.70 in 10.0 mi North 12.7 mph - N/A   Clear
11:55 AM 14.0 °F 1.2 °F 7.2 °F 74% 29.70 in 10.0 mi NNW 10.4 mph - N/A   Clear
12:15 PM 14.7 °F 0.7 °F 7.7 °F 74% 29.70 in 10.0 mi NNW 12.7 mph - N/A   Clear
12:35 PM 15.3 °F 2.0 °F 7.7 °F 72% 29.70 in 10.0 mi North 11.5 mph - N/A   Clear
12:55 PM 15.8 °F 4.2 °F 8.6 °F 73% 29.70 in 10.0 mi North 9.2 mph - N/A   Clear
1:15 PM 16.7 °F 4.5 °F 8.6 °F 70% 29.70 in 10.0 mi North 10.4 mph - N/A   Clear
1:35 PM 17.2 °F 4.5 °F 9.1 °F 71% 29.70 in 10.0 mi North 11.5 mph - N/A   Clear
1:55 PM 17.2 °F 6.0 °F 9.3 °F 71% 29.70 in 10.0 mi North 9.2 mph - N/A   Clear
2:15 PM 18.1 °F 7.1 °F 9.3 °F 68% 29.71 in 10.0 mi NNW 9.2 mph - N/A   Scattered Clouds
2:35 PM 18.3 °F 7.3 °F 9.1 °F 67% 29.72 in 10.0 mi North 9.2 mph - N/A   Scattered Clouds
2:55 PM 18.3 °F 8.2 °F 8.4 °F 65% 29.72 in 10.0 mi NW 8.1 mph - N/A   Scattered Clouds
3:15 PM 18.0 °F 6.1 °F 7.7 °F 64% 29.73 in 10.0 mi NW 10.4 mph - N/A   Clear
3:35 PM 17.1 °F 5.0 °F 7.3 °F 66% 29.74 in 10.0 mi NW 10.4 mph - N/A   Clear
3:55 PM 16.7 °F 5.3 °F 6.8 °F 65% 29.74 in 10.0 mi NNW 9.2 mph - N/A   Clear
4:15 PM 15.8 °F 6.1 °F 6.6 °F 67% 29.75 in 10.0 mi NNW 6.9 mph - N/A   Clear
4:35 PM 15.3 °F 4.4 °F 5.7 °F 66% 29.76 in 10.0 mi NW 8.1 mph - N/A   Clear
4:55 PM 14.7 °F 1.4 °F 5.2 °F 66% 29.78 in 10.0 mi NNW 11.5 mph - N/A   Clear
5:15 PM 14.4 °F 0.9 °F 5.0 °F 66% 29.78 in 10.0 mi NNW 11.5 mph - N/A   Clear
5:35 PM 10.4 °F -2.4 °F 3.4 °F 73% 29.80 in 10.0 mi North 9.2 mph - N/A   Clear
5:55 PM 10.8 °F -2.0 °F 3.7 °F 73% 29.81 in 10.0 mi North 9.2 mph - N/A   Clear
6:15 PM 11.1 °F -5.1 °F 3.6 °F 72% 29.82 in 10.0 mi NNW 15.0 mph 19.6 mph N/A   Clear
6:35 PM 10.2 °F -5.7 °F 3.0 °F 73% 29.83 in 10.0 mi NNW 13.8 mph - N/A   Clear
6:55 PM 9.0 °F -8.5 °F 1.9 °F 73% 29.84 in 10.0 mi NNW 16.1 mph - N/A   Clear
7:15 PM 7.3 °F -9.3 °F 0.9 °F 75% 29.85 in 10.0 mi NNW 13.8 mph - N/A   Clear
7:35 PM 5.7 °F -10.7 °F -0.4 °F 76% 29.85 in 10.0 mi NNW 12.7 mph - N/A   Clear
7:55 PM 5.4 °F -11.8 °F -0.2 °F 78% 29.85 in 10.0 mi NNW 13.8 mph 19.6 mph N/A   Clear
8:15 PM 5.0 °F -13.0 °F -1.1 °F 76% 29.86 in 10.0 mi NNW 15.0 mph 21.9 mph N/A   Clear
8:35 PM 4.1 °F -12.0 °F -1.8 °F 76% 29.86 in 10.0 mi NNW 11.5 mph - N/A   Clear
8:55 PM 3.0 °F -13.3 °F -2.9 °F 76% 29.86 in 10.0 mi NNW 11.5 mph - N/A   Clear
9:15 PM 1.9 °F -11.8 °F -3.5 °F 78% 29.86 in 10.0 mi NNW 8.1 mph - N/A   Clear
9:35 PM 0.5 °F -12.3 °F -4.2 °F 81% 29.86 in 10.0 mi NNW 6.9 mph - N/A   Clear
9:55 PM -0.2 °F -13.2 °F -4.7 °F 81% 29.87 in 10.0 mi NNW 6.9 mph - N/A   Clear
10:15 PM -0.8 °F -10.8 °F -4.9 °F 83% 29.87 in 10.0 mi NNW 4.6 mph - N/A   Clear
10:35 PM -1.5 °F -11.6 °F -5.6 °F 83% 29.88 in 10.0 mi NW 4.6 mph - N/A   Clear
10:55 PM -2.6 °F -17.3 °F -5.8 °F 86% 29.89 in 10.0 mi NNW 8.1 mph - N/A   Clear
11:15 PM -2.7 °F -16.2 °F -6.2 °F 85% 29.89 in 10.0 mi NNW 6.9 mph - N/A   Clear
11:35 PM -2.9 °F -16.5 °F -6.0 °F 87% 29.89 in 10.0 mi NNW 6.9 mph - N/A   Clear
11:55 PM -4.2 °F -16.5 °F -7.4 °F 86% 29.90 in 10.0 mi NW 5.8 mph - N/A   Clear